Location: Tamazert
(32.6352°N, 5.2072°W)
Time: 15:50:35
(UTC+00:00)

Vanguard 3 - Pass Details

Date: 08 October 2022
Orbit: 509 x 3255 km, 33.3° (Epoch: 08 December)

Event Time Altitude Azimuth Distance (km) Brightness Sun altitude
Rises 14:05:55 0° 269° (W) 3,935 11.1 42.3°
Reaches altitude 10° 14:08:58 10° 254° (WSW) 3,331 11.1 41.9°
Maximum altitude 14:15:22 22° 206° (SSW) 3,178 11.7 41.0°
Drops below altitude 10° 14:24:34 10° 163° (SSE) 4,974 11.6 39.6°
Sets 14:30:40 0° 151° (SSE) 6,470 11.9 38.6°
